Other Public Products
Issued by NWS Grand Forks, ND

Home | Current Version | Previous Version | Graphics & Text | Print | Product List | Glossary On
Versions: 1 2 3 4 5 6 7 8 9 10 11 12 13 14 15 16 17 18 19 20 21 22 23 24 25 26 27 28 29 30 31 32 33 34 35 36 37 38 39 40 41 42 43 44 45 46 47 48 49 50
954
FPUS83 KFGF 072210
OPUFGF
PRAIRIE TO PINES WEATHER ROUNDUP
NATIONAL WEATHER SERVICE EASTERN NORTH DAKOTA/GRAND FORKS ND
400 PM CST SUN FEB 07 2016

 **SATELLITE DATA USED TO AUGMENT SKY COVER AT AUTOMATED STATIONS**
 *****  WEATHER ACROSS EASTERN NORTH DAKOTA  *****

CITY           SKY/WX    TMP DP  RH WIND       PRES   REMARKS
GRAND FORKS    SNOW      18  11  74 N26G36    29.88R VSB 1/4 WCI  -1
GRAND FORKS AF LGT SNOW  18  12  79 N24G32    29.88R WCI   0
GRAND CITY NWS   N/A     16 N/A N/A N30         N/A  WCI  -4
BUXTON           N/A     18  15  85 N21G38      N/A  WCI   2
DEVILS LAKE    NOT AVBL
FARGO          FLURRIES  24  15  68 N31G38    29.84R WCI   7
WAHPETON ARPT  CLOUDY    27  19  74 N28G33    29.81R WCI  11
$$

 *****  WEATHER ACROSS CENTRAL AND WESTERN NORTH DAKOTA  *****

CITY           SKY/WX    TMP DP  RH WIND       PRES   REMARKS
JAMESTOWN      LGT SNOW  22  17  81 NW30G41   29.89R WCI   4
BISMARCK       PTSUNNY   36  17  46 NW25G40   30.03R
MINOT          MOSUNNY   34  17  50 NW36G47   30.03R WCI  19
MINOT AFB      PTSUNNY   32  19  56 NW38G47   30.02R WCI  17
GARRISON         N/A     34  17  50 NW43G58   30.02R WCI  18
WILLISTON      SUNNY     36  18  48 NW35G45   30.19R
DICKINSON      PTSUNNY   33  11  39 NW37G47   30.12R WCI  18
HETTINGER      MOSUNNY   35  10  35 NW39G49   30.13R WCI  20
$$

 *****  OTHER OBSERVATIONS NORTHEAST NORTH DAKOTA  *****

CITY           SKY/WX    TMP DP  RH WIND       PRES   REMARKS
WALHALLA       LGT SNOW  16  10  79 N24G45    29.92R WCI  -3
LANGDON        CLOUDY    16  10  79 N28       29.86R WCI  -4
CAVALIER       LGT SNOW  14   9  79 N26G46    29.90R WCI  -6
GRAFTON        LGT SNOW  16  12  86 NW29G35   29.91R WCI  -4
CANDO          NOT AVBL
FORT TOTTEN      N/A     20  12  71 NW14      29.95S WCI   7
ROLLA          LGT SNOW  18  12  79 NW40G56   29.92R WCI  -4
RUGBY          FLURRIES  21  16  79 NW37G48   29.96R WCI   1
 ***** THE ABOVE OBSERVATIONS ARE NON NWS ARE NOT QUALITY
        CONTROLLED AND MAY MIS-REPORT RAIN FOR SNOW...
$$

 *****  OTHER OBSERVATIONS SOUTHEAST NORTH DAKOTA *****

CITY           SKY/WX    TMP DP  RH WIND       PRES   REMARKS
COOPERSTOWN    NOT AVBL
VALLEY CITY    FLURRIES  23  14  68 N26G43    29.88R WCI   6
OAKES          LGT SNOW  25  19  80 NW31G44   29.87R WCI   8
GWINNER          N/A     27  23  86 NW29      29.86R WCI  11
SHEYENNE NWR     N/A     25  15  65 N21       29.95S WCI  11
BUFFALO          N/A     23  15  71 N29G44      N/A  WCI   5
WYNDMERE         N/A     27  19  74 NW26        N/A  WCI  11
 ***** THE ABOVE OBSERVATIONS ARE NON NWS ARE NOT QUALITY
       CONTROLLED AND MAY MIS-REPORT RAIN FOR SNOW...
$$

  *****  WEATHER ACROSS NORTHERN MINNESOTA  *****

CITY           SKY/WX    TMP DP  RH WIND       PRES   REMARKS
FLAG ISLAND    LGT SNOW  16  10  79 NW26      29.67R WCI  -3
WARROAD        LGT SNOW  12   7  79 NW24G36   29.72R VSB 1   WCI  -8
ROSEAU         LGT SNOW  14   9  79 NW22      29.74R VSB 1   WCI  -4
HALLOCK        SNOW      12   9  85 N35G43    29.85R VSB 1/4 WCI -10
THF RVR FALLS  NOT AVBL
HALSTAD        NOT AVBL
FOSSTON        SNOW      10   9  92 NW23G31   29.76R VSB 1/2 WCI -10
BAUDETTE       MIX PCPN  17  11  77 NW24G32   29.65R WCI  -1
WASKISH        LGT SNOW  19  16  86 NW15G23   29.64R WCI   5
CROOKSTON      SNOW      14  12  92 N31G38    29.85R VSB 1/4 WCI  -7
$$
  *****  WEATHER ACROSS CENTRAL AND WEST MINNESOTA  *****

CITY           SKY/WX    TMP DP  RH WIND       PRES   REMARKS
BEMIDJI        LGT SNOW  16  13  87 W21G26    29.66R VSB 1   WCI  -1
PARK RAPIDS    SNOW      18  12  77 NW28G37   29.66R VSB 1/2 WCI  -1
WADENA         LGT SNOW  18  16  93 NW16G33   29.69R VSB 3/4 WCI   3
DETROIT LAKES  SNOW      18  16  93 NW29G39   29.76R VSB 1/2 WCI  -2
MOORHEAD       LGT RAIN  21  16  79 N30G40    29.83R WCI   3
FERGUS FALLS   LGT SNOW  25  19  80 N33G40    29.80R VSB 1   WCI   7
ELBOW LAKE     CLOUDY    25  19  78 W30G37    29.76R HAZE    WCI   8
MORRIS MN      CLOUDY    28  23  80 NW32G39   29.76R WCI  12
STAPLES        LGT SNOW  21  16  79 NW25G36   29.67R WCI   4
WHEATON        FLURRIES  28  21  74 NW26G38   29.82R WCI  13
$$
  *****  WEATHER ELSEWHERE ACROSS MINNESOTA  *****

CITY           SKY/WX    TMP DP  RH WIND       PRES   REMARKS
DULUTH         LGT SNOW  31  27  85 NW15G24   29.47R FOG     WCI  20
INTRNTL FALLS  MIX PCPN  26  23  88 NW15      29.54R FOG     WCI  14
ELY            LGT SNOW  32  30  93 W6        29.44R VSB 3/4
CLOQUET        LGT SNOW  30  27  86 W17G25    29.50R WCI  18
BRAINERD       LGT SNOW  24  20  84 NW20G29   29.62R VSB 3/4 WCI  10
HIBBING        SNOW      27  24  89 NW14G25   29.51R VSB 1/2 WCI  16
ALEXANDRIA     FLURRIES  25  17  72 NW23G37   29.72R WCI  10
SAINT CLOUD    CLOUDY    31  21  66 NW25G43   29.64R WCI  17
MINNEAPOLIS    CLOUDY    37  29  72 W15       29.62S
$$

  *****  WEATHER ACROSS SOUTH DAKOTA  *****

CITY           SKY/WX    TMP DP  RH WIND       PRES   REMARKS
SIOUX FALLS    CLOUDY    33  24  69 NW30G43   29.85R WCI  19
BROOKINGS      NOT AVBL
WATERTOWN      LGT SNOW  27  20  75 NW29G44   29.83R WCI  11
HURON          FLURRIES  31  23  72 NW26G40   29.92R WCI  17
SISSETON         N/A     28  20  71 N28G46    29.80R WCI  13
ABERDEEN       CLOUDY    30  17  58 N32G46    29.92R WCI  14
MITCHELL       CLOUDY    34  25  69 NW31G46   29.95R WCI  20
PIERRE         CLOUDY    38  17  42 NW36G46   30.02R
MOBRIDGE       CLOUDY    36  19  50 NW41G53   29.97R
RAPID CITY     SUNNY     39   5  24 NW47G61   30.17R
$$

  *****  SOME WEATHER IN NEARBY STATES *****

CITY           SKY/WX    TMP DP  RH WIND       PRES   REMARKS
GLASGOW MT     SUNNY     36  20  52 NW23G33   30.33R
GREAT FALLS MT SUNNY     44   8  23 SW8G20    30.41F
CHEYENNE WY    SUNNY     31  17  56 N25G38    30.24R WCI  17
SCOTTSBLUFF NE CLOUDY    34  17  50 NW21G30   30.30R WCI  22
OMAHA NE       FLURRIES  36  29  75 NW18G32   29.96R
DES MOINES IA  PTSUNNY   40  25  55 W21       29.85S
DAVENPORT IA   SUNNY     43  29  57 W15       29.80R
CHICAGO IL     CLOUDY    42  32  67 W15G23    29.72S
EAU CLAIRE WI  CLOUDY    38  25  59 W13G22    29.58S
LA CROSSE WI   CLOUDY    39  25  57 W14G23    29.66R
$$

  *****  SOME NATIONAL WEATHER *****

CITY           SKY/WX    TMP DP  RH WIND       PRES   REMARKS
LA GUARDIA NY  CLOUDY    42  28  57 NE9       30.04F
RALEIGH NC     CLOUDY    44  21  40 NE10G22   29.89F
ATLANTA GA     MOSUNNY   55  21  26 NW13G20   29.99S
NEW ORLEANS LA SUNNY     59  19  21 VRB3      30.15F
OKLAHOMA CITY  MOSUNNY   59  24  26 N16       30.14S
ALBUQUERQUE NM MOSUNNY   56  15  20 N16       30.28F
SALT LAKE CITY MOSUNNY   39  26  59 N5        30.58F HAZE
LOS ANGELES CA SUNNY     78  33  19 W8        30.08F
BOISE ID       SUNNY     47  34  60 NW8       30.59F
SEATTLE WA     PTSUNNY   51  36  56 N9        30.55F
$$

*** WEATHER ACROSS MANITOBA...SASKATCHEWAN AND ONTARIO ***
                ***ONTARIO***

CITY           SKY/WX    TMP DP  RH WIND       PRES   REMARKS
GERALDTON      LGT SNOW   5   0  78 NE12G23   29.71R VSB 3/4 WCI -11
THUNDER BAY    SNOW      23  21  93 E13       29.57R VSB 1/2 WCI  11
SIOUX LOOKOUT  LGT SNOW  14   9  79 NE3       29.62R
TORONTO        MOCLDY    39  28  65 E12       29.88F
BIG TROUT LK   CLEAR     -2 -11  65 E8        29.99R WCI -17
PICKLE LAKE    LGT SNOW   5   0  78 E13G23    29.74R DRFTSNOWWCI -12
DRYDEN         FLURRIES  16  12  86 NE13      29.59R WCI   2
KENORA         LGT SNOW  18  14  86 N13G20    29.64R DRFTSNOWWCI   4
$$
                *** MANITOBA***

CITY           SKY/WX    TMP DP  RH WIND       PRES   REMARKS
BRANDON        FLURRIES  18  10  73 NW25G36   30.01R WCI  -1
DAUPHIN        FLURRIES  16   9  73 NW14      30.03R WCI   1
ISLAND LAKE    FLURRIES   3  -2  78 NE6       29.91R WCI  -8
PILOT MOUND    NOT AVBL
THE PAS        FLURRIES  10   5  79 NW15      30.09R WCI  -6
THOMPSON       LGT SNOW  -4  -9  77 N8        30.02R WCI -19
WINNIPEG       LGT SNOW   9   5  85 N30       29.91R VSB 1   WCI -14
LYNN LAKE      FLURRIES   5   0  78 NW10      30.04R WCI -10
CHURCHILL      FLURRIES  -9 -17  70 SE8       30.20R WCI -26
GILLAM         CLOUDY    -4 -13  65 NE9       30.06R WCI -20
$$
                ***SASKATCHEWAN***

CITY           SKY/WX    TMP DP  RH WIND       PRES   REMARKS
ESTEVAN        MOSUNNY   32  21  64 NW36G47   30.12R WCI  16
KINDERSLEY     MOSUNNY   34  21  60 NW12G17   30.33R
LLOYDMINSTER   PTSUNNY   30  19  64 W15G21    30.29R WCI  19
PRINCE ALBERT  MOSUNNY   28  18  64 NW16      30.19R WCI  17
REGINA         MOSUNNY   32  19  59 NW31G39   30.21R WCI  17
YORKTON        FLURRIES  23  18  80 NW30G41   30.07R WCC1F1C2F2C3F3C4F4C5F5C6F6C7F7C8F8C9F9CaFaCbFbCcFcCdFdCe!



USA.gov is the U.S. government's official web portal to all federal, state and local government web resources and services.